Weather Roundup
Issued by NWS Springfield, MO

Home | Current Version | Previous Version | Text Only | Print | Product List | Glossary On
Versions: 1 2 3 4 5 6 7 8 9 10 11 12 13 14 15 16 17 18 19 20 21 22 23 24 25 26 27 28 29 30 31 32 33 34 35 36 37 38 39 40 41 42 43 44 45 46 47 48 49 50
000
NZUS99 KSGF 232207
HRRSGF

HOURLY WEATHER
NATIONAL WEATHER SERVICE SPRINGFIELD MO
500 PM CDT TUE MAY 23 2017

......SGF CWA......

CITY           SKY/WX    TMP DP  RH WIND       PRES   REMARKS
SPRINGFIELD    MOSUNNY   66  51  58 N15       29.79F
JOPLIN         MOSUNNY   69  49  48 N14       29.81F
WEST PLAINS    PTSUNNY   67  55  65 NW10G20   29.74F
ROLLA          CLOUDY    62  54  74 N13       29.74S
OSAGE BEACH    PTSUNNY   65  51  60 VRB7      29.77F
BRANSON        LGT RAIN  64  55  72 NW13G18   29.79F

......SURROUNDING SGF CWA......

CITY           SKY/WX    TMP DP  RH WIND       PRES   REMARKS
CHANUTE        CLOUDY    66  44  45 NW13      29.82
PARSONS        CLOUDY    67  47  48 NW13      29.83F
COFFEYVILLE    SUNNY     71  49  45 NW13      29.82F
EMPORIA        CLOUDY    60  47  61 W8        29.85R
GROVE OK       CLOUDY    66  52  59 N9        29.83F
ROGERS AR      LGT RAIN  61  55  81 NW6       29.82S
SILOAM SPRINGS CLOUDY    64  52  63 N13       29.82F
HARRISON AR    CLOUDY    61  58  90 W6        29.79S
NEAR YELLVILLE CLOUDY    64  55  72 W5        29.73S

......KANSAS AND MISSOURI......

CITY           SKY/WX    TMP DP  RH WIND       PRES   REMARKS
KANSAS CTY INT CLOUDY    65  48  54 NW7       29.80F
DOWNTOWN KC    CLOUDY    63  46  54 W6        29.80S
COLUMBIA       MOSUNNY   65  49  56 NW12      29.75F
SEDALIA        PTSUNNY   66  50  56 NW15G22   29.78F
ST JOSEPH      CLOUDY    62  47  57 N16       29.81S
ST LOUIS       CLOUDY    67  58  72 NW14      29.72S
SPIRIT OF STL  CLOUDY    62  55  77 NW15      29.73R
KIRKSVILLE     CLOUDY    65  48  54 NW16G23   29.75F
WICHITA        CLOUDY    64  46  52 N13       29.88S
TOPEKA         CLOUDY    57  51  80 NW18G28   29.83R
OLATHE         CLOUDY    63  46  54 N15       29.81S

......TENNESSEE......

CITY           SKY/WX    TMP DP  RH WIND       PRES   REMARKS
MEMPHIS        MOSUNNY   80  54  40 SW6       29.69F
NASHVILLE      PTSUNNY   79  56  45 W7        29.66F

......ARKANSAS.......

CITY           SKY/WX    TMP DP  RH WIND       PRES   REMARKS
FAYETTEVILLE   LGT RAIN  60  58  92 NW7       29.81F
FT SMITH       CLOUDY    70  52  52 NW15      29.78F
LITTLE ROCK    PTSUNNY   77  54  44 NW14      29.70F

......OKLAHOMA.......

CITY           SKY/WX    TMP DP  RH WIND       PRES   REMARKS
TULSA          PTSUNNY   71  48  43 N12       29.82F
PONCA CITY     CLOUDY    67  42  40 NW14      29.87S
MCALESTER      CLOUDY    66  53  63 NW15      29.86S
OKLAHOMA CITY  CLOUDY    68  44  42 N13       29.89F

......IOWA............

CITY           SKY/WX    TMP DP  RH WIND       PRES   REMARKS
DES MOINES     PTSUNNY   61  44  53 NW12      29.76S
QUAD CITIES    MOSUNNY   66  50  56 NW3       29.70F

......ILLINOIS........

CITY           SKY/WX    TMP DP  RH WIND       PRES   REMARKS
QUINCY         MOSUNNY   63  51  65 W8        29.73F
CHICAGO        LGT RAIN  60  56  86 CALM      29.72S FOG



USA.gov is the U.S. government's official web portal to all federal, state and local government web resources and services.